Location: Banksville Park
(38.5557°N, 75.1182°W)
Time: 18:55:54
(UTC+00:00)

SAR-Lupe-1 - Pass Details

Date: 24 January 2021
Orbit: 482 x 484 km, 98.2° (Epoch: 05 March)

Event Time Altitude Azimuth Distance (km) Brightness Sun altitude
Rises 10:16:37 0° 150° (SSE) 2,535 8.2 -22.5°
Reaches altitude 10° 10:18:45 10° 142° (SE) 1,659 7.3 -22.1°
Maximum altitude 10:22:05 39° 73° (ENE) 739 5.4 -21.4°
Drops below altitude 10° 10:25:27 10° 3° (N) 1,671 6.7 -20.8°
Enters shadow 10:25:36 - 2° (N) 1,731 6.8 -20.8°
